星链-11238 (STARLINK-11238)

导读 | 豆包AI

STARLINK-11238是美国太空探索技术公司(SpaceX)星链互联网卫星星座中的一颗卫星,于2024年8月31日发射入轨,属于星链项目批量发射组网卫星。星链旨在构建全球卫星互联网,为偏远地区等提供宽带接入服务,STARLINK-11238的入轨进一步扩充了星链星座规模,提升星座覆盖密度与服务能力。

基本信息
目录编号:
60928
目录名称:
STARLINK-11238
国际标识:
2024-155E
轨道中心:
EARTH
卫星名称:
星链-11238
卫星全名:
星链-11238 (STARLINK-11238)
卫星状态:
在轨 (已飞行561 天)
发射日期:
2024-08-31 UTC
国别 :
美国 (US)
星等 :
--
轨道信息
数据来源 国际轨道数据 AOE轨道数据
星历时间 2026-03-15T06:05:15+0800
13小时前
查看轨道信息
2026-03-09T22:00:00+0800
5天前
查看轨道信息
半长轴 6737.87km 6737.808km
偏心率 0.0000437 0.0001191
轨道倾角 53.159° 53.158°
近地点辐角 34.564° 78.792°
升交点赤经 315.485° 341.800°
平近点角 325.541° 344.883°
近地点 359.438km 358.868km
远地点 360.028km 360.474km
周期 91.737分钟 91.736分钟
每日圈数 15.69708 15.697297
详细信息
固有亮度:
5
最大亮度:
2.5
卫星平台:
Starlink V1.0
覆盖范围:
全球
运营商:
太空探索技术公司
运营商所在国:
美国
制造商(研发单位):
太空探索技术公司
制造商所在国:
美国
使用方式:
暂无
卫星简介
Starlink 计划是 SpaceX 推出的全球卫星互联网项目,通过发射低轨道卫星,为全球尤其是偏远地区提供高速、低延迟的互联网服务。自 2019 年起,Starlink 已部署数千颗卫星,旨在缩小全球数字鸿沟,推动互联网普及。该项目还为军事、航空等行业提供通信支持,带来广泛经济效益。
2D轨道图
3D轨道图
轨道高度分析图
轨道倾角分析图
轨道综合分析图
查看轨道综合分析图